Location: ??????
(38.1303°N, 24.0039°E)
Time: 03:19:14
(UTC+00:00)

Helios 1B rocket - Pass Details

Date: 20 June 2021
Orbit: 573 x 583 km, 98.2° (Epoch: 05 August)

Event Time Altitude Azimuth Distance (km) Brightness Sun altitude
Rises 00:48:42 0° 1° (N) 2,793 6.9 -19.9°
Reaches altitude 10° 00:51:01 10° 351° (N) 1,889 5.7 -19.6°
Maximum altitude 00:54:37 31° 289° (WNW) 1,025 3.5 -19.2°
Enters shadow 00:55:13 29° 272° (W) 1,056 3.4 -19.1°
